[[{"header":{"parameterUnit":"m.s-1","parameterCategory":1,"la1":30.2992,"la2":30.254,"lo1":-89.0895,"lo2":-89.0443,"dy":0.0025,"dx":0.0025,"nx":19,"ny":19,"refTime":"2026-03-31T21:00:00:Z","depth":0,"parameterNumber":2,"parameterNumberName":"U-component_of_WINDS"},"data":[0,0,0,-3.0861,-3.0862,-3.0907,-3.0907,-3.0968,-3.0969,0,0,0,0,0,0,0,0,0,0,0,-3.0848,-3.0848,-3.0861,-3.0862,-3.0907,-3.0907,-3.0968,-3.0969,0,0,0,0,0,0,0,0,0,0,0,-3.0848,-3.0848,-3.0849,-3.0862,-3.0907,-3.0907,-3.0968,-3.0933,0,0,0,0,0,0,0,0,0,0,-3.0889,-3.0877,-3.0848,-3.0849,-3.0862,-3.0907,-3.0907,-3.0931,-3.0935,-3.0949,0,-3.096,0,-3.0965,-3.0973,-3.0973,0,0,0,-3.0862,-3.0873,-3.0885,-3.0849,-3.0863,-3.0907,-3.0887,-3.0933,-3.0938,-3.0954,-3.096,-3.0963,-3.0966,-3.0973,-3.0974,-3.105,-3.1051,0,0,-3.0859,-3.0856,-3.0882,-3.0888,-3.088,-3.0885,-3.0888,-3.0936,-3.0943,-3.0961,-3.0964,-3.0967,-3.0974,-3.0974,-3.105,-3.105,0,0,0,-3.0852,-3.0854,-3.0865,-3.0886,-3.0894,-3.0886,-3.089,-3.0941,-3.0945,-3.0965,-3.0968,-3.0974,-3.0975,-3.1049,-3.105,-3.1065,0,0,0,-3.0851,-3.085,-3.0864,-3.0863,-3.0893,-3.0918,-3.0894,-3.0942,-3.0947,-3.0968,-3.0974,-3.0975,-3.1049,-3.105,-3.1063,-3.1072,0,0,0,-3.0845,-3.085,-3.0856,-3.0863,-3.0882,-3.0917,-3.0923,-3.0943,-3.0949,-3.0973,-3.0976,-3.1049,-3.105,-3.1062,-3.107,-3.1091,0,0,0,-3.0838,-3.0869,-3.0857,-3.0893,-3.0881,-3.0926,-3.0923,-3.0956,-3.0979,-3.0974,-3.1049,-3.105,-3.1062,-3.1069,-3.109,-3.1107,-3.1115,0,0,-3.0875,-3.0873,-3.0895,-3.0885,-3.0931,-3.0919,-3.0968,-3.0991,-3.0996,-3.1032,-3.1034,-3.1064,-3.107,-3.1091,-3.1158,-3.1164,0,0,0,-3.0905,-3.0921,-3.0934,-3.0955,-3.0974,-3.0991,-3.1007,-3.1017,-3.1047,-3.1014,-3.1078,-3.1081,-3.1094,-3.1102,-3.1107,-3.1118,-3.1054,-3.1054,-3.1054,-3.0953,-3.0959,-3.0995,-3.1007,-3.1028,-3.1045,-3.1063,-3.1079,-3.1078,-3.1094,-3.1103,-3.1144,-3.1154,-3.1157,-3.1169,-3.1114,-3.1114,-3.1114,-3.1115,-3.1008,-3.103,-3.103,-3.1065,-3.1072,-3.1102,-3.1122,-3.1121,-3.115,-3.1136,-3.1147,-3.113,-3.1164,-3.1174,-3.1116,-3.1115,-3.1115,-3.1115,-3.1115,-3.1038,-3.105,-3.1061,-3.1094,-3.1119,-3.1131,-3.1159,-3.1165,-3.117,-3.1181,-3.1193,-3.1193,-3.1193,-3.1187,-3.1187,-3.1187,-3.1187,-3.1187,-3.1187,-3.1065,-3.1077,-3.11,-3.1125,-3.114,-3.1161,-3.1182,-3.1197,-3.1216,-3.1218,-3.1218,-3.1216,-3.1166,-3.1153,-3.119,-3.1189,-3.1189,-3.1189,-3.1189,-3.1117,-3.1107,-3.1142,-3.1157,-3.1188,-3.1213,-3.122,-3.1252,-3.1266,-3.1281,-3.1278,-3.124,-3.1238,-3.1234,-3.1223,-3.1276,-3.1276,-3.1276,-3.1276,-3.1142,-3.1142,-3.1181,-3.1205,-3.123,-3.1241,-3.1283,-3.1301,-3.1317,-3.1326,-3.132,-3.1307,-3.1303,-3.1303,-3.1298,-3.1288,-3.1356,-3.1356,-3.1356,-3.1174,-3.1178,-3.1211,-3.1226,-3.1251,-3.1273,-3.1313,-3.1342,-3.1359,-3.1359,-3.1334,-3.1331,-3.1309,-3.1302,-3.1299,-3.1291,-3.1272,0,0]},{"header":{"parameterUnit":"m.s-1","parameterCategory":1,"la1":30.2992,"la2":30.254,"lo1":-89.0895,"lo2":-89.0443,"dy":0.0025,"dx":0.0025,"nx":19,"ny":19,"refTime":"2026-03-31T21:00:00:Z","depth":0,"parameterNumber":3,"parameterNumberName":"V-component_of_WINDS"},"data":[0,0,0,4.2667,4.2665,4.2594,4.2594,4.2498,4.2498,0,0,0,0,0,0,0,0,0,0,0,4.2687,4.2687,4.2667,4.2665,4.2594,4.2594,4.2499,4.2498,0,0,0,0,0,0,0,0,0,0,0,4.2688,4.2687,4.2686,4.2665,4.2594,4.2594,4.2499,4.2553,0,0,0,0,0,0,0,0,0,0,4.2623,4.2642,4.2687,4.2686,4.2664,4.2594,4.2593,4.2556,4.255,4.253,0,4.2514,0,4.2505,4.2491,4.2491,0,0,0,4.2664,4.2647,4.2629,4.2686,4.2664,4.2594,4.2626,4.2553,4.2546,4.2522,4.2513,4.2509,4.2503,4.2491,4.249,4.2385,4.2384,0,0,4.2668,4.2674,4.2634,4.2625,4.2638,4.2628,4.2624,4.2549,4.2538,4.2512,4.2507,4.2501,4.249,4.2489,4.2385,4.2385,0,0,0,4.268,4.2676,4.266,4.2629,4.2616,4.2626,4.2621,4.2541,4.2535,4.2506,4.25,4.2489,4.2488,4.2386,4.2385,4.2371,0,0,0,4.2682,4.2683,4.2662,4.2664,4.2618,4.2578,4.2615,4.2541,4.2532,4.2501,4.2489,4.2487,4.2386,4.2385,4.2372,4.2362,0,0,0,4.2692,4.2684,4.2675,4.2664,4.2635,4.2579,4.2569,4.2539,4.2529,4.2491,4.2487,4.2387,4.2385,4.2373,4.2364,4.2338,0,0,0,4.2703,4.2659,4.2674,4.2623,4.2635,4.2572,4.257,4.2521,4.2487,4.2489,4.2386,4.2385,4.2374,4.2366,4.234,4.2319,4.231,0,0,4.265,4.2653,4.2622,4.2634,4.257,4.2582,4.2515,4.2476,4.2465,4.2412,4.2409,4.2372,4.2364,4.2339,4.2258,4.2252,0,0,0,4.2607,4.2586,4.2567,4.2538,4.251,4.2485,4.2457,4.2443,4.2399,4.244,4.2354,4.235,4.2334,4.2324,4.2318,4.2305,4.238,4.238,4.238,4.2539,4.2532,4.2482,4.2467,4.2438,4.2412,4.2387,4.2364,4.2361,4.2341,4.2325,4.2278,4.2266,4.2262,4.2249,4.2313,4.2312,4.2312,4.2312,4.2462,4.2432,4.2435,4.2387,4.238,4.2338,4.2312,4.2312,4.2272,4.2288,4.2274,4.2293,4.2255,4.2243,4.2311,4.2311,4.2312,4.2312,4.2312,4.2418,4.2402,4.2389,4.2348,4.2317,4.2302,4.2265,4.2258,4.225,4.2237,4.2221,4.2221,4.2221,4.223,4.2229,4.2229,4.2229,4.2229,4.2229,4.2378,4.2364,4.2335,4.2306,4.2288,4.2262,4.2238,4.2219,4.2195,4.2193,4.2193,4.2194,4.2253,4.2269,4.2226,4.2227,4.2227,4.2227,4.2227,4.2304,4.2321,4.2277,4.226,4.2226,4.2196,4.2189,4.2152,4.2134,4.2117,4.2122,4.2166,4.2167,4.2171,4.2184,4.2123,4.2123,4.2123,4.2123,4.2268,4.2269,4.2225,4.2198,4.217,4.216,4.2111,4.2092,4.2074,4.2064,4.2071,4.2088,4.2093,4.209,4.2097,4.2109,4.2029,4.2029,4.2029,4.2224,4.2222,4.2183,4.217,4.2143,4.2121,4.2075,4.2042,4.2025,4.2025,4.2055,4.2059,4.2086,4.2095,4.2095,4.2105,4.2127,0,0]}]]